[[{"header":{"parameterUnit":"m.s-1","parameterCategory":1,"la1":30.2991,"la2":30.254,"lo1":-89.0895,"lo2":-89.0444,"dy":0.0017,"dx":0.0017,"nx":28,"ny":28,"refTime":"2026-02-14T03:00:00:Z","depth":0,"parameterNumber":2,"parameterNumberName":"U-component_of_WINDS"},"data":[0,0,0,0,0,0,0,0,0,0,0,0,0,0,0,0,0,0,0,0,0,0,0,0,0,0,0,0,0,0,0,0,0,0,0,0,0,0,0,0,0,0,0,0,0,0,0,0,0,0,0,0,0,0,0,0,0,0,-4.4602,-4.4604,0,-4.472,-4.4722,-4.4723,-4.4759,-4.4758,-4.4757,-4.4757,-4.4877,-4.4881,-4.4885,0,0,0,0,0,0,0,0,0,0,0,0,0,-4.4409,-4.4412,-4.4602,-4.4604,-4.4605,-4.472,-4.4722,-4.4723,-4.4759,-4.4758,-4.4757,-4.4757,-4.4876,-4.4881,-4.4885,0,0,0,0,0,0,0,0,0,0,0,0,0,-4.4506,-4.4413,-4.4602,-4.4637,-4.4641,-4.472,-4.4722,-4.4724,-4.4759,-4.4758,-4.4757,-4.4756,-4.4875,-4.488,-4.4886,-4.4938,0,0,-4.4903,-4.4905,0,0,0,0,0,0,0,0,-4.4501,-4.4513,-4.463,-4.4634,-4.4639,-4.4724,-4.4698,-4.4796,-4.4759,-4.4714,-4.4757,-4.4756,-4.4827,-4.4837,-4.4861,-4.4944,-4.4949,-4.4904,-4.4907,-4.4909,-4.4911,0,0,0,0,0,0,0,-4.4494,-4.4508,-4.4649,-4.4632,-4.4637,-4.4647,-4.466,-4.4717,-4.4774,-4.4718,-4.4721,-4.4734,-4.4829,-4.4855,-4.4864,-4.4951,-4.4903,-4.4908,-4.4912,-4.4914,-4.5086,-4.5087,0,0,0,0,0,0,-4.4481,-4.4503,-4.4645,-4.4652,-4.4566,-4.4651,-4.4665,-4.4698,-4.4774,-4.4784,-4.4735,-4.4736,-4.4846,-4.4857,-4.4868,-4.4935,-4.4909,-4.4915,-4.4918,-4.5085,-4.5086,-4.5087,0,0,0,0,0,0,-4.4477,-4.4494,-4.464,-4.4578,-4.4598,-4.4655,-4.4691,-4.47,-4.4726,-4.4786,-4.4797,-4.475,-4.4846,-4.486,-4.4921,-4.494,-4.4917,-4.4922,-4.5083,-4.5085,-4.5087,-4.507,0,0,0,0,0,0,-4.4471,-4.4492,-4.4512,-4.4579,-4.4601,-4.4691,-4.4692,-4.4703,-4.4736,-4.4738,-4.4804,-4.4814,-4.4846,-4.4913,-4.4927,-4.4947,-4.4927,-4.5082,-4.5084,-4.5086,-4.5069,-4.5071,-4.5072,0,0,0,0,0,-4.4464,-4.4502,-4.4512,-4.4529,-4.4627,-4.4692,-4.4705,-4.4741,-4.4737,-4.4758,-4.4797,-4.4812,-4.4936,-4.4918,-4.4935,-4.4957,-4.5081,-4.5083,-4.5086,-4.5068,-4.507,-4.5072,0,0,0,0,0,0,-4.4435,-4.4511,-4.4524,-4.4584,-4.4631,-4.4698,-4.4725,-4.4742,-4.4791,-4.479,-4.4834,-4.4848,-4.4906,-4.4938,-4.4917,-4.5013,-4.5009,-4.5015,-4.499,-4.4992,-4.4994,-4.4984,-4.4931,0,0,0,0,0,-4.4435,-4.4481,-4.4546,-4.4593,-4.4616,-4.4666,-4.4696,-4.472,-4.4771,-4.479,-4.4834,-4.4883,-4.4933,-4.4965,-4.5014,-4.5075,-4.509,-4.5098,-4.51,-4.5101,-4.5105,-4.5141,-4.5146,-4.5096,-4.5096,-4.5096,0,0,-4.4437,-4.4484,-4.451,-4.4588,-4.4627,-4.4674,-4.4683,-4.4732,-4.4767,-4.4798,-4.4858,-4.4892,-4.495,-4.5011,-4.504,-4.5039,-4.5123,-4.5105,-4.5105,-4.5109,-4.5144,-4.5149,-4.5153,-4.5098,-4.5097,-4.5097,0,0,-4.4463,-4.4504,-4.4548,-4.4588,-4.4648,-4.4682,-4.4692,-4.4757,-4.4781,-4.4842,-4.4867,-4.491,-4.4995,-4.5036,-4.5067,-4.5112,-4.5128,-4.5128,-4.5136,-4.517,-4.5174,-4.5177,-4.5193,-4.5199,-4.5132,-4.5132,-4.5132,0,-4.4457,-4.4528,-4.4568,-4.4617,-4.465,-4.4682,-4.4727,-4.4764,-4.4837,-4.486,-4.4859,-4.4968,-4.5009,-4.508,-4.5091,-4.5116,-4.513,-4.5119,-4.517,-4.5174,-4.5178,-4.5194,-4.52,-4.5131,-4.5131,-4.5132,-4.5132,0,-4.4518,-4.4568,-4.4596,-4.4667,-4.4704,-4.4751,-4.4798,-4.4832,-4.4854,-4.4888,-4.4951,-4.5002,-4.5062,-4.5082,-4.5103,-4.5157,-4.5155,-4.5161,-4.5157,-4.5182,-4.5197,-4.5203,-4.5131,-4.5131,-4.5131,-4.5131,0,0,-4.4526,-4.462,-4.463,-4.4663,-4.4733,-4.4772,-4.4821,-4.4881,-4.4909,-4.496,-4.5002,-4.5075,-4.5082,-4.5118,-4.5145,-4.5175,-4.5208,-4.5178,-4.518,-4.5181,-4.5271,-4.5264,-4.5271,-4.522,-4.5221,-4.5222,-4.5266,0,-4.4561,-4.4649,-4.4688,-4.4758,-4.4805,-4.4838,-4.4881,-4.4928,-4.4963,-4.5008,-4.5046,-4.5097,-4.5103,-4.5125,-4.5156,-4.5197,-4.5226,-4.5195,-4.5259,-4.5261,-4.5242,-4.5279,-4.5272,-4.531,-4.5272,-4.5273,-4.5274,0,-4.4612,-4.4663,-4.4739,-4.4805,-4.4826,-4.4864,-4.4923,-4.4966,-4.5022,-4.5045,-4.5086,-4.5113,-4.5166,-4.5161,-4.5236,-4.5213,-4.5243,-4.5267,-4.527,-4.5276,-4.5267,-4.5285,-4.5324,-4.5329,-4.5284,-4.5283,-4.5283,0,-4.461,-4.4698,-4.4755,-4.4782,-4.4861,-4.4887,-4.4921,-4.4976,-4.501,-4.5063,-4.5086,-4.5144,-4.5175,-4.522,-4.5261,-4.5253,-4.5332,-4.533,-4.5353,-4.5352,-4.5366,-4.5364,-4.5409,-4.5387,-4.5387,-4.5387,-4.5387,0,-4.4644,-4.4688,-4.4755,-4.479,-4.4842,-4.4887,-4.4937,-4.4974,-4.5023,-4.5066,-4.5098,-4.5138,-4.5191,-4.5238,-4.5271,-4.5329,-4.5343,-4.5363,-4.5371,-4.5359,-4.5357,-4.5378,-4.5376,-4.5389,-4.5388,-4.5388,-4.5388,0,-4.4649,-4.4695,-4.4759,-4.483,-4.4848,-4.4883,-4.4944,-4.4979,-4.5016,-4.5071,-4.5086,-4.5144,-4.5201,-4.5248,-4.5323,-4.5345,-4.5405,-4.5415,-4.5386,-4.539,-4.541,-4.5407,-4.5468,-4.5478,-4.5451,-4.5451,-4.5451,0,-4.4666,-4.4702,-4.4776,-4.4808,-4.4841,-4.4891,-4.4927,-4.4974,-4.501,-4.5078,-4.5105,-4.5165,-4.5215,-4.5305,-4.5354,-4.5412,-4.5423,-4.5441,-4.5432,-4.5419,-4.5423,-4.5419,-4.5423,-4.5441,-4.5441,-4.5441,-4.5441,0,-4.4693,-4.4715,-4.4765,-4.4824,-4.4865,-4.4914,-4.4963,-4.4987,-4.5043,-4.5082,-4.5141,-4.518,-4.5258,-4.5317,-4.538,-4.5416,-4.5438,-4.5444,-4.5452,-4.544,-4.5421,-4.5431,-4.5387,-4.5442,-4.5442,-4.5442,-4.5442,-4.5442,-4.4705,-4.4738,-4.4796,-4.4851,-4.4894,-4.494,-4.4977,-4.5019,-4.5069,-4.5136,-4.5161,-4.5222,-4.5279,-4.5367,-4.5403,-4.5452,-4.5454,-4.5466,-4.5469,-4.5471,-4.5469,-4.5415,-4.5464,-4.5464,-4.5464,-4.5464,-4.5464,0,-4.4732,-4.4772,-4.4822,-4.4891,-4.4935,-4.4953,-4.5009,-4.5044,-4.5097,-4.5149,-4.5198,-4.5267,-4.5325,-4.538,-4.5441,-4.547,-4.5481,-4.5484,-4.5482,-4.549,-4.5464,-4.545,-4.5474,-4.5474,-4.5474,-4.5474,-4.5474,-4.5474,-4.4751,-4.4809,-4.4838,-4.4918,-4.4958,-4.5017,-4.5048,-4.5091,-4.5133,-4.5208,-4.5257,-4.5292,-4.5346,-4.5412,-4.5466,-4.5481,-4.5502,-4.5501,-4.5519,-4.5493,-4.5491,-4.549,-4.5477,-4.5506,-4.5506,-4.554,-4.5541,-4.5541]},{"header":{"parameterUnit":"m.s-1","parameterCategory":1,"la1":30.2991,"la2":30.254,"lo1":-89.0895,"lo2":-89.0444,"dy":0.0017,"dx":0.0017,"nx":28,"ny":28,"refTime":"2026-02-14T03:00:00:Z","depth":0,"parameterNumber":3,"parameterNumberName":"V-component_of_WINDS"},"data":[0,0,0,0,0,0,0,0,0,0,0,0,0,0,0,0,0,0,0,0,0,0,0,0,0,0,0,0,0,0,0,0,0,0,0,0,0,0,0,0,0,0,0,0,0,0,0,0,0,0,0,0,0,0,0,0,0,0,2.213,2.2132,0,2.2238,2.2239,2.2241,2.2345,2.2346,2.2348,2.2349,2.2454,2.2456,2.2457,0,0,0,0,0,0,0,0,0,0,0,0,0,2.2013,2.2015,2.213,2.2132,2.2133,2.2238,2.2239,2.2241,2.2345,2.2346,2.2348,2.2349,2.2454,2.2455,2.2457,0,0,0,0,0,0,0,0,0,0,0,0,0,2.2086,2.2015,2.213,2.2198,2.2205,2.2238,2.2239,2.2241,2.2344,2.2346,2.2348,2.235,2.2453,2.2455,2.2457,2.2431,0,0,2.2465,2.2465,0,0,0,0,0,0,0,0,2.2082,2.2091,2.2186,2.2193,2.2201,2.228,2.2237,2.2305,2.2344,2.2291,2.2349,2.2351,2.2394,2.2402,2.2417,2.2436,2.244,2.2465,2.2466,2.2467,2.2468,0,0,0,0,0,0,0,2.2077,2.2086,2.2173,2.2188,2.2197,2.2222,2.2235,2.225,2.233,2.2296,2.2304,2.2315,2.2399,2.2415,2.242,2.2442,2.2465,2.2467,2.2468,2.2469,2.2449,2.2447,0,0,0,0,0,0,2.2062,2.2082,2.217,2.2176,2.2146,2.2222,2.2237,2.2253,2.233,2.2344,2.2313,2.232,2.241,2.2417,2.2424,2.2402,2.2467,2.2469,2.2471,2.2451,2.2448,2.2446,0,0,0,0,0,0,2.2059,2.2069,2.2165,2.2131,2.2145,2.2222,2.2239,2.2254,2.227,2.2343,2.2358,2.2315,2.2412,2.2421,2.243,2.2407,2.247,2.2472,2.2453,2.245,2.2447,2.2354,0,0,0,0,0,0,2.2055,2.2067,2.2058,2.213,2.2147,2.2169,2.2238,2.2254,2.2274,2.2284,2.2349,2.2362,2.2414,2.2426,2.2432,2.2411,2.2474,2.2455,2.2452,2.2448,2.236,2.2349,2.2339,0,0,0,0,0,2.2051,2.2025,2.2057,2.2067,2.2137,2.2168,2.2177,2.2239,2.2272,2.2264,2.2311,2.2359,2.2408,2.2426,2.2434,2.2413,2.2457,2.2453,2.2449,2.2365,2.2351,2.2339,0,0,0,0,0,0,2.1946,2.2036,2.2072,2.2069,2.211,2.2185,2.2176,2.2222,2.2253,2.226,2.2335,2.2348,2.235,2.2382,2.24,2.2394,2.244,2.2436,2.2373,2.2361,2.235,2.2343,2.2476,0,0,0,0,0,2.1923,2.1941,2.2018,2.2009,2.2028,2.2098,2.2114,2.2159,2.2203,2.222,2.2269,2.2309,2.2334,2.2349,2.2375,2.2365,2.2382,2.2355,2.2344,2.2335,2.2332,2.2333,2.2323,2.2432,2.2432,2.2432,0,0,2.1875,2.1926,2.1933,2.1989,2.2026,2.2044,2.2112,2.2126,2.214,2.2222,2.2235,2.2272,2.2322,2.2322,2.2324,2.2349,2.2306,2.233,2.2322,2.2324,2.2328,2.2317,2.2308,2.2429,2.243,2.243,0,0,2.1797,2.1836,2.1835,2.1872,2.1928,2.1976,2.1975,2.2044,2.2073,2.2087,2.215,2.2167,2.2207,2.2242,2.2265,2.2204,2.225,2.221,2.2156,2.2156,2.2147,2.214,2.2122,2.2114,2.2206,2.2206,2.2206,0,2.173,2.176,2.1828,2.1841,2.1865,2.1942,2.1942,2.1973,2.2034,2.2049,2.2076,2.2132,2.217,2.2182,2.2167,2.2182,2.2185,2.2203,2.2143,2.2137,2.2131,2.2114,2.2107,2.2201,2.2202,2.2202,2.2203,0,2.1676,2.1696,2.1688,2.1749,2.1772,2.1777,2.1846,2.1861,2.1904,2.1949,2.1964,2.2014,2.2054,2.206,2.21,2.2078,2.2092,2.213,2.2178,2.2115,2.21,2.2094,2.2194,2.2196,2.2197,2.2198,0,0,2.1535,2.1636,2.1632,2.1663,2.1732,2.1748,2.1757,2.1799,2.1812,2.1851,2.1863,2.1897,2.1934,2.196,2.2005,2.2005,2.1958,2.2044,2.2046,2.2029,2.194,2.1913,2.1904,2.1988,2.1987,2.1987,2.1937,0,2.1471,2.1496,2.1559,2.1564,2.1585,2.166,2.1669,2.1712,2.1755,2.1778,2.1824,2.1849,2.1894,2.1911,2.1914,2.1963,2.1941,2.1967,2.2001,2.2001,2.1989,2.1896,2.1867,2.1817,2.1931,2.193,2.1929,0,2.14,2.1439,2.1447,2.1519,2.153,2.1537,2.1582,2.1603,2.1654,2.1686,2.1716,2.1768,2.1783,2.1826,2.1849,2.1865,2.1883,2.1909,2.1909,2.1916,2.1963,2.1903,2.1802,2.1796,2.192,2.1921,2.1922,0,2.1301,2.1354,2.1368,2.139,2.1473,2.1477,2.1512,2.1565,2.1588,2.1626,2.1642,2.168,2.1702,2.1731,2.1792,2.1817,2.181,2.1857,2.1837,2.1836,2.1834,2.1833,2.1737,2.184,2.184,2.184,2.184,0,2.1225,2.1227,2.1325,2.1333,2.1339,2.1411,2.1414,2.1456,2.1503,2.1521,2.1587,2.1601,2.168,2.1704,2.1751,2.1766,2.1774,2.18,2.1813,2.1796,2.1793,2.181,2.1816,2.1838,2.1839,2.1839,2.1839,0,2.1115,2.118,2.12,2.1278,2.1298,2.1299,2.1366,2.1377,2.1425,2.1446,2.1456,2.1529,2.1562,2.1625,2.1673,2.1706,2.171,2.1731,2.1694,2.1702,2.168,2.1683,2.1593,2.1587,2.169,2.1689,2.1688,0,2.1064,2.1069,2.1149,2.1167,2.12,2.1226,2.1251,2.1322,2.1345,2.1405,2.1409,2.1447,2.1482,2.153,2.1587,2.1626,2.165,2.1616,2.1656,2.164,2.1654,2.1654,2.1656,2.1608,2.1606,2.1605,2.1604,0,2.0967,2.1,2.1033,2.1079,2.1106,2.1145,2.1186,2.1197,2.1278,2.13,2.1335,2.1362,2.1414,2.1452,2.1499,2.1534,2.1583,2.1591,2.1589,2.1573,2.1552,2.1567,2.1672,2.1593,2.1594,2.1595,2.1595,2.1596,2.0888,2.0897,2.0956,2.0992,2.1031,2.107,2.1085,2.1136,2.1167,2.1217,2.1257,2.1289,2.1343,2.1413,2.1445,2.1472,2.1495,2.1491,2.1491,2.1489,2.1484,2.1546,2.148,2.148,2.1481,2.1481,2.1481,0,2.0798,2.084,2.0872,2.0931,2.0959,2.1004,2.1053,2.1074,2.1103,2.1149,2.1183,2.1225,2.1263,2.1324,2.1367,2.1376,2.14,2.1385,2.1387,2.1395,2.1459,2.1458,2.1366,2.1366,2.1366,2.1366,2.1366,2.1366,2.0754,2.0773,2.0813,2.0853,2.0896,2.093,2.0955,2.0991,2.103,2.1074,2.1107,2.1147,2.1201,2.1249,2.1285,2.1303,2.1316,2.1295,2.1319,2.1379,2.139,2.14,2.14,2.1297,2.1297,2.1254,2.1253,2.1253]}]]